Location: Atherton
(17.2661°S, 145.4859°E)
Time: 23:14:56
(UTC+10:00)

Transit 2A - Pass Details

Date: 26 June 2025
Orbit: 598 x 948 km, 66.7° (Epoch: 19 July)

Event Time Altitude Azimuth Distance (km) Brightness Sun altitude
Rises 19:44:02 0° 195° (SSW) 3,361 9.3 -25.4°
Reaches altitude 10° 19:46:39 10° 190° (S) 2,366 8.4 -26.0°
Enters shadow 19:46:50 11° 190° (S) 2,297 8.4 -26.0°
Maximum altitude 19:51:55 53° 114° (ESE) 901 - -27.1°
Drops below altitude 10° 19:56:37 10° 37° (NE) 2,122 - -28.2°
Sets 19:58:51 0° 32° (NNE) 2,983 - -28.7°
